Station Historical Data
Daily Summary for September 27, 2017 Units:  Metric    English   Both
« Previous Day
Next Day »
Daily Weekly Monthly Yearly Custom
  High: Low: Average:
Temperature: 28.4 °C 16.6 °C 22.2 °C
Dew Point: 21.9 °C 10.4 °C 17.1 °C
Humidity: 89% 56% 74%
Wind Speed: 22.5km/h 0km/h 5.1km/h
Wind Gust: 32.2km/h - -
Wind- - West
Pressure: 1014.1 hPa 1009 hPa -
Precipitation: 0 mm    
Historical Graphs
 
 
Tabular Data for September 27, 2017
Time Temperature Dew Point Pressure Wind Wind Speed Wind Gust Humidity Rainfall Rate (Hourly)
00:04 20.7 °C 16.9 °C 1012.8 hPa Calm   1.6 km/h 79% 0 mm
00:09 20.8 °C 16.8 °C 1012.8 hPa Calm   3.2 km/h 78% 0 mm
00:14 20.9 °C 16.9 °C 1012.8 hPa Calm     78% 0 mm
00:19 20.9 °C 16.9 °C 1012.8 hPa Calm     78% 0 mm
00:24 20.8 °C 16.8 °C 1012.8 hPa Calm     78% 0 mm
00:29 20.8 °C 16.8 °C 1012.8 hPa Calm     78% 0 mm
00:34 20.8 °C 16.8 °C 1012.8 hPa Calm     78% 0 mm
00:39 20.7 °C 16.9 °C 1012.8 hPa Calm     79% 0 mm
00:44 20.6 °C 16.8 °C 1012.8 hPa Calm     79% 0 mm
00:49 20.6 °C 16.8 °C 1012.8 hPa Calm     79% 0 mm
00:54 20.4 °C 16.7 °C 1012.8 hPa Calm     79% 0 mm
00:59 20.2 °C 16.4 °C 1012.8 hPa Calm     79% 0 mm
01:04 20.1 °C 16.5 °C 1012.4 hPa Calm     80% 0 mm
01:09 19.8 °C 16.5 °C 1012.4 hPa Calm     81% 0 mm
01:14 19.8 °C 16.4 °C 1012.4 hPa Calm     81% 0 mm
01:19 19.7 °C 16.6 °C 1012.8 hPa Calm     82% 0 mm
01:24 19.7 °C 16.5 °C 1012.8 hPa Calm     82% 0 mm
01:29 19.6 °C 16.4 °C 1012.4 hPa Calm     82% 0 mm
01:34 19.5 °C 16.3 °C 1012.4 hPa Calm     82% 0 mm
01:39 19.4 °C 16.5 °C 1012.4 hPa Calm     83% 0 mm
01:44 19.4 °C 16.5 °C 1012.4 hPa Calm     83% 0 mm
01:49 19.5 °C 16.6 °C 1012.4 hPa Calm     83% 0 mm
01:54 19.5 °C 16.6 °C 1012.4 hPa Calm     83% 0 mm
01:59 19.5 °C 16.6 °C 1012.4 hPa Calm     83% 0 mm
02:04 19.5 °C 16.3 °C 1012.4 hPa Calm     82% 0 mm
02:09 19.4 °C 16.5 °C 1012.4 hPa Calm     83% 0 mm
02:14 19.3 °C 16.4 °C 1012.8 hPa Calm     83% 0 mm
02:19 19.3 °C 16.4 °C 1012.4 hPa Calm     83% 0 mm
02:24 19.3 °C 16.3 °C 1012.4 hPa Calm     83% 0 mm
02:29 19.3 °C 16.4 °C 1012.4 hPa Calm     83% 0 mm
02:34 19.3 °C 16.3 °C 1012.4 hPa Calm     83% 0 mm
02:39 19.2 °C 16.3 °C 1012.4 hPa Calm     83% 0 mm
02:44 19.2 °C 16.4 °C 1012.4 hPa Calm     84% 0 mm
02:49 19.2 °C 16.4 °C 1012.4 hPa Calm     84% 0 mm
02:54 19.2 °C 16.4 °C 1012.1 hPa Calm     84% 0 mm
02:59 19.2 °C 16.4 °C 1012.1 hPa Calm     84% 0 mm
03:04 19.1 °C 16.3 °C 1012.1 hPa Calm     84% 0 mm
03:09 18.9 °C 16.2 °C 1012.1 hPa Calm     84% 0 mm
03:14 18.8 °C 16.1 °C 1012.1 hPa Calm     84% 0 mm
03:19 18.8 °C 16 °C 1012.1 hPa Calm     84% 0 mm
03:24 18.7 °C 16.1 °C 1012.1 hPa Calm     85% 0 mm
03:29 18.7 °C 16.1 °C 1012.1 hPa Calm     85% 0 mm
03:34 18.6 °C 16.1 °C 1012.1 hPa Calm     85% 0 mm
03:39 18.5 °C 16.1 °C 1012.1 hPa Calm     86% 0 mm
03:44 18.4 °C 16.1 °C 1012.1 hPa Calm     86% 0 mm
03:49 18.4 °C 16.1 °C 1011.7 hPa Calm     86% 0 mm
03:54 18.5 °C 16.1 °C 1011.7 hPa Calm     86% 0 mm
03:59 18.6 °C 16.2 °C 1011.7 hPa Calm     86% 0 mm
04:04 18.6 °C 16.2 °C 1011.7 hPa Calm     86% 0 mm
04:09 18.6 °C 16.2 °C 1011.7 hPa Calm     86% 0 mm
04:14 18.6 °C 16.2 °C 1011.7 hPa Calm     86% 0 mm
04:19 18.6 °C 16.1 °C 1011.7 hPa Calm     85% 0 mm
04:24 18.6 °C 16 °C 1011.7 hPa Calm     85% 0 mm
04:29 18.4 °C 15.9 °C 1011.7 hPa Calm     85% 0 mm
04:34 18.4 °C 15.8 °C 1011.7 hPa Calm     85% 0 mm
04:39 18.2 °C 15.7 °C 1011.7 hPa Calm     85% 0 mm
04:44 18.2 °C 15.8 °C 1011.7 hPa Calm     86% 0 mm
04:49 18.2 °C 15.8 °C 1011.7 hPa Calm     86% 0 mm
04:54 18.2 °C 15.8 °C 1011.4 hPa Calm     86% 0 mm
04:59 18.1 °C 15.7 °C 1011.4 hPa Calm     86% 0 mm
05:04 18.1 °C 15.7 °C 1011.4 hPa Calm     86% 0 mm
05:09 18.1 °C 15.7 °C 1011.4 hPa Calm     86% 0 mm
05:14 18 °C 15.6 °C 1011.4 hPa Calm     86% 0 mm
05:19 17.9 °C 15.5 °C 1011.4 hPa Calm     86% 0 mm
05:24 17.8 °C 15.7 °C 1011.4 hPa Calm     87% 0 mm
05:29 17.8 °C 15.6 °C 1011.4 hPa Calm     87% 0 mm
05:34 17.8 °C 15.6 °C 1011.4 hPa Calm     87% 0 mm
05:39 17.7 °C 15.6 °C 1011.4 hPa Calm     87% 0 mm
05:44 17.7 °C 15.5 °C 1011.4 hPa Calm     87% 0 mm
05:49 17.6 °C 15.4 °C 1011.4 hPa Calm     87% 0 mm
05:54 17.6 °C 15.6 °C 1011.4 hPa Calm     88% 0 mm
05:59 17.6 °C 15.4 °C 1011.7 hPa Calm     87% 0 mm
06:04 17.5 °C 15.5 °C 1011.4 hPa Calm     88% 0 mm
06:09 17.5 °C 15.5 °C 1011.4 hPa Calm     88% 0 mm
06:14 17.6 °C 15.6 °C 1011.4 hPa Calm     88% 0 mm
06:19 17.6 °C 15.6 °C 1011.4 hPa Calm     88% 0 mm
06:24 17.6 °C 15.6 °C 1011.4 hPa Calm     88% 0 mm
06:29 17.6 °C 15.6 °C 1011.4 hPa Calm     88% 0 mm
06:34 17.6 °C 15.6 °C 1011.4 hPa Calm     88% 0 mm
06:39 17.6 °C 15.6 °C 1011.4 hPa Calm     88% 0 mm
06:44 17.6 °C 15.6 °C 1011.4 hPa Calm     88% 0 mm
06:49 17.6 °C 15.6 °C 1011.4 hPa Calm     88% 0 mm
06:54 17.7 °C 15.7 °C 1011.4 hPa Calm     88% 0 mm
06:59 17.6 °C 15.6 °C 1011.4 hPa Calm     88% 0 mm
07:04 17.6 °C 15.6 °C 1011.4 hPa Calm     88% 0 mm
07:09 17.6 °C 15.6 °C 1011.7 hPa Calm     88% 0 mm
07:14 17.6 °C 15.6 °C 1011.7 hPa Calm     88% 0 mm
07:19 17.7 °C 15.7 °C 1011.7 hPa Calm     88% 0 mm
07:24 17.8 °C 15.8 °C 1011.7 hPa Calm     88% 0 mm
07:29 17.9 °C 16.1 °C 1011.4 hPa Calm     89% 0 mm
07:34 18.1 °C 16.3 °C 1011.4 hPa Calm     89% 0 mm
07:39 18.3 °C 16.3 °C 1011.4 hPa Calm     88% 0 mm
07:44 18.6 °C 16.6 °C 1011.4 hPa Calm     88% 0 mm
07:49 18.9 °C 16.8 °C 1011.7 hPa Calm   4.8 km/h 88% 0 mm
07:54 19.2 °C 17.1 °C 1011.7 hPa Calm   4.8 km/h 88% 0 mm
07:59 19.4 °C 17.2 °C 1011.4 hPa Calm   3.2 km/h 87% 0 mm
08:04 19.6 °C 17.2 °C 1011.4 hPa Calm     86% 0 mm
08:09 19.9 °C 17.5 °C 1011.7 hPa Calm   4.8 km/h 86% 0 mm
08:14 20.2 °C 17.6 °C 1011.4 hPa Calm     85% 0 mm
08:19 20.6 °C 17.8 °C 1011.4 hPa Calm   4.8 km/h 84% 0 mm
08:24 20.9 °C 17.9 °C 1011.4 hPa Calm     83% 0 mm
08:29 21.4 °C 18.2 °C 1011.4 hPa Calm     82% 0 mm
08:34 21.9 °C 18.3 °C 1011.4 hPa SW 3.2 km/h 4.8 km/h 80% 0 mm
08:39 22.3 °C 18.3 °C 1011.4 hPa SW 1.6 km/h 6.4 km/h 78% 0 mm
08:44 22.7 °C 18.6 °C 1011.4 hPa SW 1.6 km/h 6.4 km/h 78% 0 mm
08:49 23.1 °C 18.6 °C 1011.4 hPa SW 1.6 km/h 6.4 km/h 76% 0 mm
08:54 23.4 °C 18.8 °C 1011.4 hPa SW 3.2 km/h 8 km/h 75% 0 mm
08:59 23.7 °C 18.8 °C 1011.4 hPa SW 3.2 km/h 9.7 km/h 74% 0 mm
09:04 24.1 °C 18.9 °C 1011.4 hPa WSW 4.8 km/h 11.3 km/h 73% 0 mm
09:09 24.4 °C 19 °C 1011.4 hPa SW 4.8 km/h 11.3 km/h 72% 0 mm
09:14 24.7 °C 19.1 °C 1011.4 hPa SW 1.6 km/h 9.7 km/h 71% 0 mm
09:19 25 °C 19.2 °C 1011.4 hPa SW 6.4 km/h 11.3 km/h 70% 0 mm
09:24 25.2 °C 18.9 °C 1011.4 hPa SSW 8 km/h 16.1 km/h 68% 0 mm
09:29 25.6 °C 19.2 °C 1011.4 hPa WSW 4.8 km/h 9.7 km/h 68% 0 mm
09:34 25.8 °C 19.2 °C 1011.1 hPa WSW 6.4 km/h 12.9 km/h 67% 0 mm
09:39 25.9 °C 18.8 °C 1011.1 hPa SW 6.4 km/h 16.1 km/h 65% 0 mm
09:44 26 °C 18.9 °C 1011.4 hPa SW 8 km/h 16.1 km/h 65% 0 mm
09:49 26.2 °C 19.1 °C 1011.4 hPa SW 8 km/h 17.7 km/h 65% 0 mm
09:54 26.3 °C 18.9 °C 1011.1 hPa SW 8 km/h 17.7 km/h 64% 0 mm
09:59 26.3 °C 18.9 °C 1011.1 hPa WSW 12.9 km/h 19.3 km/h 64% 0 mm
10:04 26.5 °C 19.1 °C 1011.1 hPa WNW 6.4 km/h 14.5 km/h 64% 0 mm
10:09 26.6 °C 18.9 °C 1011.1 hPa WSW 8 km/h 14.5 km/h 63% 0 mm
10:14 26.6 °C 18.9 °C 1011.1 hPa WSW 8 km/h 14.5 km/h 63% 0 mm
10:19 26.7 °C 18.8 °C 1011.1 hPa WSW 9.7 km/h 16.1 km/h 62% 0 mm
10:24 26.8 °C 19.2 °C 1011.1 hPa WSW 11.3 km/h 16.1 km/h 63% 0 mm
10:29 26.8 °C 18.9 °C 1011.1 hPa SW 11.3 km/h 22.5 km/h 62% 0 mm
10:34 26.8 °C 19.2 °C 1010.7 hPa WSW 16.1 km/h 16.1 km/h 63% 0 mm
10:39 27.1 °C 19.4 °C 1010.7 hPa WSW 9.7 km/h 16.1 km/h 63% 0 mm
10:44 27.1 °C 18.9 °C 1010.7 hPa WSW 9.7 km/h 19.3 km/h 61% 0 mm
10:49 27.3 °C 19.6 °C 1010.7 hPa West 4.8 km/h 17.7 km/h 63% 0 mm
10:54 27.3 °C 19.2 °C 1010.7 hPa West 12.9 km/h 19.3 km/h 61% 0 mm
10:59 27.2 °C 18.8 °C 1010.7 hPa West 11.3 km/h 17.7 km/h 60% 0 mm
11:04 27.4 °C 19.2 °C 1010.7 hPa SW 11.3 km/h 22.5 km/h 61% 0 mm
11:09 27.3 °C 18.9 °C 1010.7 hPa WSW 11.3 km/h 24.1 km/h 60% 0 mm
11:14 27.3 °C 18.6 °C 1010.7 hPa WSW 12.9 km/h 24.1 km/h 59% 0 mm
11:19 27.4 °C 19 °C 1010.7 hPa WSW 11.3 km/h 24.1 km/h 60% 0 mm
11:24 27.8 °C 19.1 °C 1010.7 hPa WSW 9.7 km/h 24.1 km/h 59% 0 mm
11:29 27.8 °C 18.8 °C 1010.7 hPa WSW 9.7 km/h 20.9 km/h 58% 0 mm
11:34 27.8 °C 18.5 °C 1010.7 hPa WSW 11.3 km/h 20.9 km/h 57% 0 mm
11:39 27.8 °C 18.6 °C 1010.7 hPa WSW 16.1 km/h 22.5 km/h 57% 0 mm
11:44 27.8 °C 18.2 °C 1010.7 hPa NW 19.3 km/h 22.5 km/h 56% 0 mm
11:49 27.8 °C 18.5 °C 1010.7 hPa WSW 11.3 km/h 25.7 km/h 57% 0 mm
11:54 27.8 °C 18.6 °C 1010.7 hPa WSW 12.9 km/h 24.1 km/h 57% 0 mm
11:59 28.2 °C 18.8 °C 1010.7 hPa SSE 8 km/h 20.9 km/h 57% 0 mm
12:04 28.1 °C 18.7 °C 1010.7 hPa SW 6.4 km/h 20.9 km/h 57% 0 mm
12:09 27.9 °C 19.2 °C 1010.7 hPa WSW 12.9 km/h 30.6 km/h 59% 0 mm
12:14 27.9 °C 19.2 °C 1010.4 hPa WSW 11.3 km/h 30.6 km/h 59% 0 mm
12:19 27.9 °C 18.9 °C 1010.4 hPa WSW 11.3 km/h 19.3 km/h 58% 0 mm
12:24 27.8 °C 19.3 °C 1010.4 hPa WSW 9.7 km/h 19.3 km/h 60% 0 mm
12:29 27.8 °C 19.3 °C 1010.4 hPa WSW 9.7 km/h 19.3 km/h 60% 0 mm
12:34 27.9 °C 19.2 °C 1010.4 hPa WSW 6.4 km/h 17.7 km/h 59% 0 mm
12:39 27.9 °C 19.4 °C 1010.4 hPa West 6.4 km/h 22.5 km/h 60% 0 mm
12:44 27.9 °C 19.7 °C 1010.4 hPa West 6.4 km/h 24.1 km/h 61% 0 mm
12:49 28.4 °C 20.2 °C 1010.4 hPa WSW 16.1 km/h 16.1 km/h 61% 0 mm
12:54 28.3 °C 19.8 °C 1010.4 hPa WNW 11.3 km/h 22.5 km/h 60% 0 mm
12:59 28.3 °C 20.1 °C 1010.4 hPa WSW 6.4 km/h 17.7 km/h 61% 0 mm
13:04 28.2 °C 19.7 °C 1010.4 hPa WSW 9.7 km/h 20.9 km/h 60% 0 mm
13:09 27.9 °C 19.4 °C 1010.4 hPa WSW 11.3 km/h 20.9 km/h 60% 0 mm
13:14 27.9 °C 19.7 °C 1010.4 hPa WSW 11.3 km/h 19.3 km/h 61% 0 mm
13:19 28.1 °C 19.9 °C 1010 hPa SW 9.7 km/h 22.5 km/h 61% 0 mm
13:24 28.1 °C 19.9 °C 1010 hPa WSW 16.1 km/h 19.3 km/h 61% 0 mm
13:29 28.1 °C 19.9 °C 1010 hPa WSW 19.3 km/h 27.4 km/h 61% 0 mm
13:34 27.9 °C 19.7 °C 1010 hPa SW 11.3 km/h 27.4 km/h 61% 0 mm
13:39 27.9 °C 20 °C 1009.7 hPa SSW 9.7 km/h 22.5 km/h 62% 0 mm
13:44 28.1 °C 19.8 °C 1009.7 hPa West 11.3 km/h 27.4 km/h 61% 0 mm
13:49 27.9 °C 20 °C 1009.7 hPa SSW 4.8 km/h 20.9 km/h 62% 0 mm
13:54 27.8 °C 19.9 °C 1009.7 hPa SSW 4.8 km/h 25.7 km/h 62% 0 mm
13:59 27.9 °C 20 °C 1009.7 hPa SW 11.3 km/h 22.5 km/h 62% 0 mm
14:04 27.9 °C 19.9 °C 1009.7 hPa SW 12.9 km/h 25.7 km/h 62% 0 mm
14:09 28.1 °C 20.3 °C 1009.7 hPa WSW 12.9 km/h 25.7 km/h 63% 0 mm
14:14 27.9 °C 20.2 °C 1009.7 hPa WSW 19.3 km/h 22.5 km/h 63% 0 mm
14:19 27.8 °C 20.1 °C 1009.7 hPa West 11.3 km/h 25.7 km/h 63% 0 mm
14:24 27.7 °C 20.3 °C 1009.7 hPa SW 22.5 km/h 22.5 km/h 64% 0 mm
14:29 27.9 °C 20.2 °C 1009.7 hPa WSW 12.9 km/h 22.5 km/h 63% 0 mm
14:34 27.7 °C 20.3 °C 1009.7 hPa WSW 12.9 km/h 27.4 km/h 64% 0 mm
14:39 27.7 °C 20.5 °C 1009.7 hPa NW 11.3 km/h 24.1 km/h 65% 0 mm
14:44 27.4 °C 20.5 °C 1009.7 hPa SSW 11.3 km/h 32.2 km/h 66% 0 mm
14:49 27.2 °C 20.7 °C 1009.7 hPa WSW 14.5 km/h 32.2 km/h 68% 0 mm
14:54 27.3 °C 20.7 °C 1009.7 hPa WSW 12.9 km/h 24.1 km/h 67% 0 mm
14:59 27.3 °C 20.8 °C 1009.7 hPa South 11.3 km/h 24.1 km/h 68% 0 mm
15:04 27.3 °C 21.1 °C 1009.7 hPa WSW 12.9 km/h 24.1 km/h 69% 0 mm
15:09 27.2 °C 21.1 °C 1009.7 hPa West 4.8 km/h 25.7 km/h 69% 0 mm
15:14 27.2 °C 21.2 °C 1009.4 hPa WNW 11.3 km/h 24.1 km/h 70% 0 mm
15:19 27.3 °C 21.3 °C 1009.4 hPa West 9.7 km/h 19.3 km/h 70% 0 mm
15:24 27.2 °C 21.5 °C 1009.4 hPa WSW 11.3 km/h 24.1 km/h 71% 0 mm
15:29 27.1 °C 21.6 °C 1009.4 hPa WNW 9.7 km/h 25.7 km/h 72% 0 mm
15:34 27.2 °C 21.4 °C 1009.4 hPa WSW 11.3 km/h 25.7 km/h 71% 0 mm
15:39 27.2 °C 21.4 °C 1009.4 hPa WSW 11.3 km/h 27.4 km/h 71% 0 mm
15:44 27.2 °C 21.7 °C 1009.4 hPa SW 12.9 km/h 27.4 km/h 72% 0 mm
15:49 26.8 °C 21.3 °C 1009.4 hPa SW 12.9 km/h 27.4 km/h 72% 0 mm
15:54 26.7 °C 21.5 °C 1009.7 hPa WSW 6.4 km/h 19.3 km/h 73% 0 mm
15:59 27 °C 21.9 °C 1009.7 hPa SW 6.4 km/h 19.3 km/h 74% 0 mm
16:04 27.4 °C 21.7 °C 1009.7 hPa WSW 9.7 km/h 20.9 km/h 71% 0 mm
16:09 27.4 °C 21.7 °C 1009.4 hPa WSW 8 km/h 20.9 km/h 71% 0 mm
16:14 26.9 °C 21.6 °C 1009.4 hPa SW 11.3 km/h 17.7 km/h 73% 0 mm
16:19 26.3 °C 21.6 °C 1009.4 hPa NW 1.6 km/h 17.7 km/h 75% 0 mm
16:24 26.3 °C 21.7 °C 1009.4 hPa SW 3.2 km/h 19.3 km/h 76% 0 mm
16:29 26.5 °C 21.7 °C 1009.4 hPa WSW 9.7 km/h 19.3 km/h 75% 0 mm
16:34 26.7 °C 21.7 °C 1009 hPa WSW 8 km/h 19.3 km/h 74% 0 mm
16:39 26.4 °C 21.7 °C 1009.4 hPa WSW 9.7 km/h 16.1 km/h 75% 0 mm
16:44 26.4 °C 21.7 °C 1009.4 hPa WSW 9.7 km/h 19.3 km/h 75% 0 mm
16:49 26.3 °C 21.6 °C 1009.4 hPa WSW 14.5 km/h 16.1 km/h 75% 0 mm
16:54 25.8 °C 21.2 °C 1009.4 hPa West 9.7 km/h 17.7 km/h 76% 0 mm
16:59 25.3 °C 21.4 °C 1009.7 hPa NW 12.9 km/h 22.5 km/h 79% 0 mm
17:04 25.1 °C 21.4 °C 1009.7 hPa West 9.7 km/h 22.5 km/h 80% 0 mm
17:09 25 °C 21.5 °C 1009.7 hPa West 6.4 km/h 14.5 km/h 81% 0 mm
17:14 25.1 °C 21.6 °C 1009.7 hPa West 4.8 km/h 11.3 km/h 81% 0 mm
17:19 25.1 °C 20.7 °C 1009.7 hPa Calm   8 km/h 77% 0 mm
17:24 25.2 °C 20.4 °C 1009.7 hPa NW 3.2 km/h 9.7 km/h 75% 0 mm
17:29 25.1 °C 19.9 °C 1009.7 hPa NW 4.8 km/h 14.5 km/h 73% 0 mm
17:34 24.9 °C 19.7 °C 1010 hPa NW 8 km/h 16.1 km/h 73% 0 mm
17:39 24.5 °C 19.1 °C 1010 hPa NNW 8 km/h 16.1 km/h 72% 0 mm
17:44 24.3 °C 19.1 °C 1010 hPa NNW 8 km/h 16.1 km/h 73% 0 mm
17:49 24.2 °C 19.1 °C 1010 hPa NNW 8 km/h 16.1 km/h 73% 0 mm
17:54 24.1 °C 19.1 °C 1010.4 hPa NNW 8 km/h 16.1 km/h 74% 0 mm
17:59 23.9 °C 19 °C 1010 hPa NNW 6.4 km/h 17.7 km/h 74% 0 mm
18:04 23.8 °C 18.9 °C 1010.4 hPa NNW 6.4 km/h 17.7 km/h 74% 0 mm
18:09 23.8 °C 18.9 °C 1010.4 hPa North 3.2 km/h 12.9 km/h 74% 0 mm
18:14 23.6 °C 18.7 °C 1010.4 hPa NW 11.3 km/h 17.7 km/h 74% 0 mm
18:19 23.4 °C 18.3 °C 1010.4 hPa NW 8 km/h 17.7 km/h 73% 0 mm
18:24 23.3 °C 18.4 °C 1010.7 hPa WNW 9.7 km/h 17.7 km/h 74% 0 mm
18:29 23.1 °C 18.4 °C 1010.7 hPa NW 4.8 km/h 19.3 km/h 75% 0 mm
18:34 22.9 °C 18.1 °C 1010.7 hPa NNW 6.4 km/h 19.3 km/h 74% 0 mm
18:39 22.8 °C 17.9 °C 1010.7 hPa NW 8 km/h 19.3 km/h 74% 0 mm
18:44 22.7 °C 17.8 °C 1011.1 hPa NW 6.4 km/h 19.3 km/h 74% 0 mm
18:49 22.6 °C 17.7 °C 1011.1 hPa NW 6.4 km/h 14.5 km/h 74% 0 mm
18:54 22.5 °C 17.6 °C 1011.1 hPa NW 4.8 km/h 14.5 km/h 74% 0 mm
18:59 22.3 °C 17.1 °C 1011.1 hPa NW 8 km/h 17.7 km/h 72% 0 mm
19:04 22.3 °C 17.1 °C 1011.1 hPa NNE 3.2 km/h 17.7 km/h 72% 0 mm
19:09 22.2 °C 16.7 °C 1011.4 hPa NW 8 km/h 19.3 km/h 71% 0 mm
19:14 22.2 °C 16.9 °C 1011.4 hPa NW 6.4 km/h 19.3 km/h 72% 0 mm
19:19 22 °C 16.7 °C 1011.4 hPa Calm   12.9 km/h 72% 0 mm
19:24 21.9 °C 16.6 °C 1011.4 hPa NW 6.4 km/h 12.9 km/h 72% 0 mm
19:29 21.8 °C 16.1 °C 1011.4 hPa North 1.6 km/h 12.9 km/h 70% 0 mm
19:34 21.7 °C 15.7 °C 1011.7 hPa NW 6.4 km/h 17.7 km/h 69% 0 mm
19:39 21.5 °C 15.3 °C 1011.7 hPa NNW 4.8 km/h 17.7 km/h 68% 0 mm
19:44 21.3 °C 15.2 °C 1011.7 hPa NNW 4.8 km/h 12.9 km/h 68% 0 mm
19:49 21.2 °C 15 °C 1011.7 hPa NW 4.8 km/h 12.9 km/h 68% 0 mm
19:54 21 °C 15.1 °C 1011.7 hPa NNW 3.2 km/h 9.7 km/h 69% 0 mm
19:59 20.8 °C 14.9 °C 1012.1 hPa NW 3.2 km/h 12.9 km/h 69% 0 mm
20:04 20.7 °C 15.1 °C 1012.1 hPa NW 4.8 km/h 12.9 km/h 70% 0 mm
20:09 20.7 °C 15 °C 1012.1 hPa NW 9.7 km/h 14.5 km/h 70% 0 mm
20:14 20.6 °C 14.7 °C 1012.1 hPa North 11.3 km/h 14.5 km/h 69% 0 mm
20:19 20.4 °C 14.6 °C 1012.4 hPa NNW 4.8 km/h 19.3 km/h 69% 0 mm
20:24 20.3 °C 14.2 °C 1012.4 hPa NNW 4.8 km/h 20.9 km/h 68% 0 mm
20:29 20.3 °C 14.2 °C 1012.4 hPa West 12.9 km/h 17.7 km/h 68% 0 mm
20:34 20.2 °C 14.1 °C 1012.4 hPa NW 8 km/h 17.7 km/h 68% 0 mm
20:39 20.2 °C 14.1 °C 1012.8 hPa NNW 6.4 km/h 17.7 km/h 68% 0 mm
20:44 20.1 °C 13.7 °C 1012.8 hPa NW 6.4 km/h 17.7 km/h 67% 0 mm
20:49 19.9 °C 13.6 °C 1012.8 hPa NW 4.8 km/h 17.7 km/h 67% 0 mm
20:54 19.7 °C 13.4 °C 1012.8 hPa NNW 4.8 km/h 12.9 km/h 67% 0 mm
20:59 19.6 °C 13.3 °C 1012.8 hPa NW 11.3 km/h 14.5 km/h 67% 0 mm
21:04 19.5 °C 13 °C 1012.8 hPa NNW 9.7 km/h 16.1 km/h 66% 0 mm
21:09 19.4 °C 12.9 °C 1012.8 hPa NW 4.8 km/h 16.1 km/h 66% 0 mm
21:14 19.3 °C 12.8 °C 1012.8 hPa NNW 4.8 km/h 16.1 km/h 66% 0 mm
21:19 19.2 °C 12.9 °C 1012.8 hPa NW 1.6 km/h 16.1 km/h 67% 0 mm
21:24 19.1 °C 12.8 °C 1013.1 hPa NNW 12.9 km/h 17.7 km/h 67% 0 mm
21:29 19.1 °C 12.8 °C 1013.1 hPa NW 6.4 km/h 14.5 km/h 67% 0 mm
21:34 18.9 °C 12.7 °C 1013.4 hPa NNW 8 km/h 14.5 km/h 67% 0 mm
21:39 18.8 °C 12.5 °C 1013.4 hPa NW 4.8 km/h 14.5 km/h 67% 0 mm
21:44 18.7 °C 12.4 °C 1013.1 hPa NW 3.2 km/h 9.7 km/h 67% 0 mm
21:49 18.6 °C 12.6 °C 1013.1 hPa NW 3.2 km/h 9.7 km/h 68% 0 mm
21:54 18.5 °C 12.3 °C 1013.4 hPa NW 3.2 km/h 11.3 km/h 67% 0 mm
21:59 18.4 °C 12.2 °C 1013.4 hPa Calm   12.9 km/h 67% 0 mm
22:04 18.2 °C 12.2 °C 1013.4 hPa NW 3.2 km/h 12.9 km/h 68% 0 mm
22:09 18.2 °C 11.9 °C 1013.4 hPa NW 3.2 km/h 16.1 km/h 67% 0 mm
22:14 18.2 °C 11.9 °C 1013.4 hPa NW 4.8 km/h 16.1 km/h 67% 0 mm
22:19 18.1 °C 11.8 °C 1013.4 hPa NW 4.8 km/h 14.5 km/h 67% 0 mm
22:24 18 °C 12 °C 1013.8 hPa NW 4.8 km/h 14.5 km/h 68% 0 mm
22:29 17.9 °C 11.9 °C 1013.8 hPa NW 8 km/h 11.3 km/h 68% 0 mm
22:34 17.9 °C 11.9 °C 1013.4 hPa NW 4.8 km/h 14.5 km/h 68% 0 mm
22:39 17.8 °C 11.8 °C 1013.8 hPa WNW 9.7 km/h 16.1 km/h 68% 0 mm
22:44 17.8 °C 11.8 °C 1013.8 hPa NW 4.8 km/h 19.3 km/h 68% 0 mm
22:49 17.8 °C 11.8 °C 1013.8 hPa NNW 3.2 km/h 16.1 km/h 68% 0 mm
22:54 17.7 °C 11.7 °C 1013.8 hPa NE 3.2 km/h 14.5 km/h 68% 0 mm
22:59 17.6 °C 11.8 °C 1013.8 hPa NNW 1.6 km/h 9.7 km/h 69% 0 mm
23:04 17.4 °C 11.7 °C 1013.8 hPa NNW 3.2 km/h 12.9 km/h 69% 0 mm
23:09 17.3 °C 11.6 °C 1014.1 hPa NNW 4.8 km/h 16.1 km/h 69% 0 mm
23:14 17.2 °C 11.7 °C 1013.8 hPa NW 4.8 km/h 16.1 km/h 70% 0 mm
23:19 17.1 °C 11.3 °C 1013.8 hPa NW 4.8 km/h 9.7 km/h 69% 0 mm
23:24 17 °C 11.3 °C 1013.8 hPa NW 4.8 km/h 12.9 km/h 69% 0 mm
23:29 16.9 °C 10.8 °C 1013.8 hPa NW 4.8 km/h 16.1 km/h 67% 0 mm
23:34 16.9 °C 10.7 °C 1013.8 hPa NW 6.4 km/h 16.1 km/h 67% 0 mm
23:44 16.7 °C 10.6 °C 1013.8 hPa NW 1.6 km/h 14.5 km/h 67% 0 mm
23:49 16.6 °C 10.4 °C 1013.8 hPa NW 3.2 km/h 6.4 km/h 67% 0 mm
23:54 16.6 °C 10.6 °C 1013.8 hPa NW 8 km/h 12.9 km/h 68% 0 mm
23:59 16.6 °C 10.6 °C 1013.8 hPa Calm   12.9 km/h 68% 0 mm
Buffalo, New York, USA
Compliments of Weather Underground - 2.5 mb